It's Monday,
October 14th, 2019
User not logged in
[Run Race Header Image][Run Race logo]
  
Race webcasting is attempted by race directors and their support staff. Please remember that conditions under which they're working may make it difficult to post timely webcast updates... your interest and patience is appreciated!
Race Information
Race Name:2nd Annual Indiana Trail 100
Location:Albion
State:Indiana, United States
 button: button: Webcast Autoplay
Event Information
Name of Event:100 Mile Trail
Distance:100 Miles
Started Date/Time:Saturday April 26th, 2014, 5:59:34.15 am
button: Assign Numbers  
Checkpoint:SchOut5
Distance:70.98 Miles
Gun Start Time:Saturday April 26th, 2014 5:59:34.15 am
Calculate Chip Start Time:< not set >
Y or N... Calculate splits based upon participant chip start time?
Allow Early Chip Start Time:< not set >
Y or N... Allow participants a chip start time prior to gun start?
Pos Race
Number
NameAgeSexTimePace 
1166Jim Trout44M11:30:54.39:44.0
2141Shan Riggs35M11:51:26.710:01.4Sat Apr 26th, 2014 5:51:00 pm
314John Bertram51M12:06:37.010:14.2Sat Apr 26th, 2014 6:06:11 pm
4148Travis Shields37M12:24:03.910:29.0Sat Apr 26th, 2014 6:23:38 pm
534Vincent Corona30M12:34:15.510:37.6
6182Craig Wheeler52M12:44:59.110:46.6Sat Apr 26th, 2014 6:44:33 pm
7151Jen Skelly34F12:46:09.210:47.6Sat Apr 26th, 2014 6:45:43 pm
8158Paul Stofko38M12:47:28.410:48.8Sat Apr 26th, 2014 6:47:02 pm
941Paul Dott31M12:49:52.910:50.8Sat Apr 26th, 2014 6:49:27 pm
1026Jessica Campbell21F13:07:29.311:05.7Sat Apr 26th, 2014 7:07:03 pm
11149Todd Siebert32M13:07:57.411:06.1Sat Apr 26th, 2014 7:07:31 pm
12127Daniel Paige34M13:41:36.011:34.5Sat Apr 26th, 2014 7:41:10 pm
13140Kirk Ridenour54M13:49:06.511:40.9Sat Apr 26th, 2014 7:48:40 pm
1420Erin Brady42F13:51:40.911:43.0Sat Apr 26th, 2014 7:51:15 pm
1579David E. Jackson36M13:59:42.211:49.8Sat Apr 26th, 2014 7:59:16 pm
16104David Mentjes44M14:07:10.511:56.1Sat Apr 26th, 2014 8:06:44 pm
1768Shawn Hawk49M14:16:14.312:03.8Sat Apr 26th, 2014 8:15:48 pm
1887Ryan "Stormy" Knight37M14:23:07.812:09.6Sat Apr 26th, 2014 8:22:41 pm
1928Tony Cesario50M14:23:21.812:09.8Sat Apr 26th, 2014 8:22:55 pm
20161Mika Thewes22F14:29:35.412:15.1Sat Apr 26th, 2014 8:29:09 pm
2144Tanya Eggert44F14:37:11.612:21.5Sat Apr 26th, 2014 8:36:45 pm
22162Mark Thill38M14:50:44.912:33.0Sat Apr 26th, 2014 8:50:19 pm
2346Mike Else45M14:53:30.112:35.3Sat Apr 26th, 2014 8:53:04 pm
2424todd brown45M14:55:40.612:37.1Sat Apr 26th, 2014 8:55:14 pm
25113SIAMAK MOSTOUFI39M14:55:41.212:37.1Sat Apr 26th, 2014 8:55:15 pm
2650Linda Keuneke50F14:55:48.912:37.2Sat Apr 26th, 2014 8:55:23 pm
27172Kenneth Westerman55M15:00:39.312:41.3Sat Apr 26th, 2014 9:00:13 pm
28183Anastasia Andrychowski34F15:04:16.312:44.4Sat Apr 26th, 2014 9:03:50 pm
2963Jerret Halter32M15:04:39.612:44.7Sat Apr 26th, 2014 9:04:13 pm
30115Carolynn Nauta32F15:06:28.512:46.3Sat Apr 26th, 2014 9:06:02 pm
31133Richard Plezia55M15:16:21.612:54.6Sat Apr 26th, 2014 9:15:55 pm
32134dave potter49M15:21:37.112:59.1Sat Apr 26th, 2014 9:21:11 pm
33116David Nelson26M15:25:48.313:02.6Sat Apr 26th, 2014 9:25:22 pm
3454Tom Fifer51M15:27:18.813:03.9Sat Apr 26th, 2014 9:26:52 pm
35123Reggie O'HARA45M15:27:59.113:04.4Sat Apr 26th, 2014 9:27:33 pm
36125Jeff Oliver40M15:28:07.213:04.5Sat Apr 26th, 2014 9:27:41 pm
3762Martin Guthrie47M15:28:27.513:04.8Sat Apr 26th, 2014 9:28:01 pm
38114Larry Mullinnix49M15:30:25.713:06.5Sat Apr 26th, 2014 9:29:59 pm
39154Mike Smith56M15:31:31.613:07.4Sat Apr 26th, 2014 9:31:05 pm
40181Rene Samano28M15:31:58.213:07.8Sat Apr 26th, 2014 9:31:32 pm
4172Rich Henderson58M15:32:07.313:07.9Sat Apr 26th, 2014 9:31:41 pm
4257Mark Gavorski48M15:35:38.413:10.9Sat Apr 26th, 2014 9:35:12 pm
4340Noe j Dominguez45M15:39:03.413:13.8Sat Apr 26th, 2014 9:38:37 pm
4451Dan Fabish18M15:40:10.013:14.7Sat Apr 26th, 2014 9:39:44 pm
45147mark sheeran54M15:40:38.713:15.1Sat Apr 26th, 2014 9:40:12 pm
4636John Cushma40M15:45:43.713:19.4Sat Apr 26th, 2014 9:45:17 pm
47177Eric Fritz46M15:48:37.713:21.9Sat Apr 26th, 2014 9:48:11 pm
4842Michael Dowdell38M15:50:10.613:23.2Sat Apr 26th, 2014 9:49:44 pm
49126Julie Pagel29F15:55:28.713:27.7Sat Apr 26th, 2014 9:55:02 pm
50103Chris McMahon54M15:58:02.313:29.8Sat Apr 26th, 2014 9:57:36 pm
5156Helen Garen49F16:06:52.113:37.3Sat Apr 26th, 2014 10:06:26 pm
52108Joshua Mock32M16:15:21.413:44.5Sat Apr 26th, 2014 10:14:55 pm
53107Kirk Misaka55M16:21:53.913:50.0Sat Apr 26th, 2014 10:21:28 pm
5491Bill Kulwicki55M16:22:07.213:50.2Sat Apr 26th, 2014 10:21:41 pm
5576Scott Hudson46M16:27:14.413:54.5Sat Apr 26th, 2014 10:26:48 pm
5683Chris Junken35M16:31:27.713:58.1Sat Apr 26th, 2014 10:31:01 pm
57156Phil Stapert47M16:36:15.414:02.1Sat Apr 26th, 2014 10:35:49 pm
58171Marci Wease37F16:37:04.814:02.8Sat Apr 26th, 2014 10:36:38 pm
598Brian Barger53M16:41:31.814:06.6Sat Apr 26th, 2014 10:41:05 pm
6073Jeff Hogan45M16:50:16.114:14.0Sat Apr 26th, 2014 10:49:50 pm
6139Nathan DeWall34M16:52:23.714:15.8Sat Apr 26th, 2014 10:51:57 pm
6266Dick Canterbury66M16:52:33.514:15.9Sat Apr 26th, 2014 10:52:07 pm
6317Andrew Borst43M16:54:39.414:17.7Sat Apr 26th, 2014 10:54:13 pm
64178Joe Cuthbertson39M16:55:39.614:18.5Sat Apr 26th, 2014 10:55:13 pm
6521Bob Brashear55M17:01:52.514:23.8Sat Apr 26th, 2014 11:01:26 pm
66159Steve Sunbury44M17:06:07.914:27.4Sat Apr 26th, 2014 11:05:42 pm
67143Matthew Santner37M17:13:22.314:33.5Sat Apr 26th, 2014 11:12:56 pm
68130Alfredo ''Moose'' Pedro45M17:15:22.214:35.2Sat Apr 26th, 2014 11:14:56 pm
6925Aaron Butler32M17:19:13.914:38.5Sat Apr 26th, 2014 11:18:48 pm
70174Randall Yost55M17:25:02.814:43.4Sat Apr 26th, 2014 11:24:36 pm
71146Rob Schultz47M17:25:35.614:43.8Sat Apr 26th, 2014 11:25:09 pm
72121Mark Norfleet57M17:30:47.614:48.2Sat Apr 26th, 2014 11:30:21 pm
7399Daniel Maddox38M17:38:10.714:54.5Sat Apr 26th, 2014 11:37:44 pm
74135Rob Putz48M17:39:06.414:55.3Sat Apr 26th, 2014 11:38:40 pm
75165Judd Trayling40M17:48:19.815:03.1Sat Apr 26th, 2014 11:47:53 pm
7652Jamie Farley35M17:50:22.815:04.8Sat Apr 26th, 2014 11:49:56 pm
7716toni bohannon46F17:53:40.815:07.6Sat Apr 26th, 2014 11:53:14 pm
785LEE ANDERSON56M17:56:13.915:09.7Sat Apr 26th, 2014 11:55:48 pm
7933Aaron Conner41M18:40:41.315:47.3Sun Apr 27th, 2014 12:40:15 am
80120Caleb Nolen28M18:43:36.815:49.8Sun Apr 27th, 2014 12:43:10 am
81169Chris Walker34M18:47:26.415:53.0Sun Apr 27th, 2014 12:47:00 am
8282Juan Juarez42M18:48:07.915:53.6Sun Apr 27th, 2014 12:47:42 am
83105Craig Meseko29M18:49:45.915:55.0Sun Apr 27th, 2014 12:49:20 am
8453Ramon Ferrer Jr34M18:57:06.016:01.2Sun Apr 27th, 2014 12:56:40 am
8538James Davidson51M18:57:38.516:01.7Sun Apr 27th, 2014 12:57:12 am
8612Richard Barton61M18:58:00.616:02.0Sun Apr 27th, 2014 12:57:34 am
879Crystal Barton38F18:58:25.116:02.3Sun Apr 27th, 2014 12:57:59 am
8870Mike Heider54M18:58:46.216:02.6Sun Apr 27th, 2014 12:58:20 am
89101Sondra Marker50F19:01:45.316:05.1Sun Apr 27th, 2014 1:01:19 am
90150Robert Siscoe59M19:09:09.616:11.4Sun Apr 27th, 2014 1:08:43 am
91167Ali Turfe50M19:16:44.416:17.8Sun Apr 27th, 2014 1:16:18 am
92132Catherine Pinkston29F19:22:07.116:22.3Sun Apr 27th, 2014 1:21:41 am
93122Terry Null55M19:35:55.716:34.0Sun Apr 27th, 2014 1:35:29 am
9447David Englund46M19:40:49.616:38.2Sun Apr 27th, 2014 1:40:23 am
95176Stan Zygmunt51M19:44:41.016:41.4Sun Apr 27th, 2014 1:44:15 am
96137Jamie Quarandillo40F19:53:53.716:49.2Sun Apr 27th, 2014 1:53:27 am
97111James Cooper44M19:55:18.216:50.4Sun Apr 27th, 2014 1:54:52 am
98173Michael Wolff41M20:12:59.417:05.4Sun Apr 27th, 2014 2:12:33 am
99138Frank Rampton57M20:12:59.717:05.4Sun Apr 27th, 2014 2:12:33 am
10081MELISSA JOYCE-HASSAN49F20:32:06.417:21.5Sun Apr 27th, 2014 2:31:40 am
10115sandra bocchicchio41F20:41:45.317:29.7
10223Kimmie Brown34F20:42:44.417:30.5Sun Apr 27th, 2014 2:42:18 am
10369Kent Heck52M24:51:29.621:00.8Sun Apr 27th, 2014 6:51:03 am

Event Information
Name of Event:50 Mile Trail
Distance:50 Miles
Started Date/Time:Saturday April 26th, 2014, 5:59:34.15 am
button: Assign Numbers 
2004-2019 : All rights reserved
Terms and Conditions